N631LG KPHL-KHVN

Flight info

Callsign N631LG
Flight time N/A
Altitude 17000
Route DITCH T416 DRIFT T320 YANTC T224 WOONS
Aircraft TBM9/L-SDFGRWY/S

Departure

Time N/A
Airport Philadelphia International Airport (KPHL)

Arrival

Time 2026-05-07 01:31
Airport Tweed New Haven Airport (KHVN)
Time Latitude Longitude Altitude Speed Heading
2026-05-07 01:12 40.58962 -72.71900 17026 ft 332 kts 37°
2026-05-07 01:13 40.60665 -72.69831 17028 ft 332 kts 37°
2026-05-07 01:13 40.62350 -72.67783 17030 ft 332 kts 37°
2026-05-07 01:13 40.64065 -72.65739 16970 ft 330 kts 32°
2026-05-07 01:13 40.66058 -72.64337 16533 ft 312 kts
2026-05-07 01:14 40.68124 -72.63976 16132 ft 293 kts 351°
2026-05-07 01:14 40.70131 -72.64010 15760 ft 287 kts 347°
2026-05-07 01:14 40.72127 -72.64107 15394 ft 284 kts 347°
2026-05-07 01:14 40.74106 -72.64216 15026 ft 282 kts 347°
2026-05-07 01:15 40.76057 -72.64325 14673 ft 281 kts 347°
2026-05-07 01:15 40.78028 -72.64433 14318 ft 281 kts 347°
2026-05-07 01:15 40.79956 -72.64536 13974 ft 280 kts 347°
2026-05-07 01:15 40.81911 -72.64639 13618 ft 280 kts 347°
2026-05-07 01:16 40.83894 -72.64761 13228 ft 293 kts 347°
2026-05-07 01:16 40.85975 -72.64907 12842 ft 300 kts 347°
2026-05-07 01:16 40.88083 -72.65065 12462 ft 303 kts 347°
2026-05-07 01:16 40.90190 -72.65239 12086 ft 303 kts 347°
2026-05-07 01:17 40.92283 -72.65427 11718 ft 303 kts 347°
2026-05-07 01:17 40.94390 -72.65623 11341 ft 296 kts 347°
2026-05-07 01:17 40.96401 -72.65818 10974 ft 289 kts 347°
2026-05-07 01:17 40.98408 -72.66023 10523 ft 286 kts 347°
2026-05-07 01:18 41.00381 -72.66226 10040 ft 280 kts 347°
2026-05-07 01:18 41.02312 -72.66434 9546 ft 277 kts 347°
2026-05-07 01:18 41.04220 -72.66648 9020 ft 274 kts 347°
2026-05-07 01:18 41.06100 -72.66869 8509 ft 272 kts 347°
2026-05-07 01:19 41.07982 -72.67100 8002 ft 269 kts 347°
2026-05-07 01:19 41.09833 -72.67340 7486 ft 267 kts 347°
2026-05-07 01:19 41.11681 -72.67592 6998 ft 265 kts 347°
2026-05-07 01:19 41.13496 -72.67855 6516 ft 264 kts 347°
2026-05-07 01:20 41.15321 -72.68134 6025 ft 262 kts 347°
2026-05-07 01:20 41.17127 -72.68423 5516 ft 261 kts 347°
2026-05-07 01:20 41.18933 -72.68722 5015 ft 259 kts 347°
2026-05-07 01:20 41.20384 -72.68961 4611 ft 258 kts 347°
2026-05-07 01:21 41.22163 -72.69258 4103 ft 256 kts 347°
2026-05-07 01:21 41.23930 -72.69557 3604 ft 255 kts 347°
2026-05-07 01:21 41.25689 -72.69854 3107 ft 253 kts 347°
2026-05-07 01:21 41.27408 -72.70149 2611 ft 251 kts 347°
2026-05-07 01:22 41.29138 -72.70438 2109 ft 249 kts 347°
2026-05-07 01:22 41.30818 -72.70719 2008 ft 237 kts 347°
2026-05-07 01:22 41.32440 -72.71004 2000 ft 233 kts 346°
2026-05-07 01:22 41.34054 -72.71289 2001 ft 231 kts 346°
2026-05-07 01:23 41.35636 -72.71546 2004 ft 230 kts 346°
2026-05-07 01:23 41.37225 -72.71796 2002 ft 229 kts 347°
2026-05-07 01:23 41.38803 -72.72065 1987 ft 226 kts 347°
2026-05-07 01:23 41.40355 -72.72322 1988 ft 225 kts 347°
2026-05-07 01:24 41.41781 -72.72939 1987 ft 214 kts 320°
2026-05-07 01:24 41.42680 -72.74438 1988 ft 201 kts 288°
2026-05-07 01:24 41.43001 -72.76151 1994 ft 182 kts 277°
2026-05-07 01:24 41.43237 -72.77772 1986 ft 176 kts 277°
2026-05-07 01:25 41.43468 -72.79320 1982 ft 163 kts 277°
2026-05-07 01:25 41.43680 -72.80758 1986 ft 156 kts 277°
2026-05-07 01:25 41.43891 -72.82170 1985 ft 152 kts 277°
2026-05-07 01:25 41.44061 -72.83529 1979 ft 146 kts 265°
2026-05-07 01:26 41.43619 -72.84669 1984 ft 147 kts 224°
2026-05-07 01:26 41.42739 -72.85408 1990 ft 149 kts 217°
2026-05-07 01:26 41.41851 -72.86134 1990 ft 149 kts 217°
2026-05-07 01:26 41.40989 -72.86882 1990 ft 148 kts 219°
2026-05-07 01:27 41.40060 -72.87483 1985 ft 154 kts 196°
2026-05-07 01:27 41.38970 -72.87451 1987 ft 159 kts 185°
2026-05-07 01:27 41.37927 -72.87568 2004 ft 139 kts 201°
2026-05-07 01:27 41.37023 -72.87793 2004 ft 127 kts 198°
2026-05-07 01:28 41.36156 -72.87949 1982 ft 124 kts 197°
2026-05-07 01:28 41.35324 -72.88089 1883 ft 117 kts 198°
2026-05-07 01:28 41.34548 -72.88213 1731 ft 107 kts 198°
2026-05-07 01:28 41.33760 -72.88285 1562 ft 118 kts 194°
2026-05-07 01:29 41.33007 -72.88329 1394 ft 93 kts 193°
2026-05-07 01:29 41.32342 -72.88375 1247 ft 102 kts 192°
2026-05-07 01:29 41.31614 -72.88424 1087 ft 107 kts 191°
2026-05-07 01:29 41.30861 -72.88479 916 ft 111 kts 187°
2026-05-07 01:30 41.30078 -72.88533 735 ft 113 kts 186°
2026-05-07 01:30 41.29276 -72.88587 557 ft 115 kts 184°
2026-05-07 01:30 41.28480 -72.88638 378 ft 116 kts 183°
2026-05-07 01:30 41.27670 -72.88691 193 ft 116 kts 182°
2026-05-07 01:31 41.26883 -72.88740 24 ft 102 kts 184°
2026-05-07 01:31 41.26316 -72.88778 11 ft 52 kts 183°
2026-05-07 01:31 41.26083 -72.88791 16 ft 34 kts 189°
2026-05-07 01:31 41.25839 -72.88793 15 ft 9 kts 135°
2026-05-07 01:32 41.25812 -72.88709 15 ft 14 kts 176°
2026-05-07 01:32 41.25774 -72.88714 15 ft 0 kts 181°
2026-05-07 01:32 41.25749 -72.88712 14 ft 8 kts 106°
2026-05-07 01:32 41.25926 -72.88689 13 ft 39 kts
2026-05-07 01:33 41.26179 -72.88631 14 ft 35 kts 10°
2026-05-07 01:33 41.26383 -72.88504 13 ft 31 kts 36°
2026-05-07 01:33 41.26520 -72.88558 12 ft 30 kts 310°
2026-05-07 01:33 41.26714 -72.88850 9 ft 46 kts 313°
2026-05-07 01:34 41.26822 -72.89149 10 ft 16 kts 165°
2026-05-07 01:34 41.26791 -72.89005 9 ft 26 kts 65°
2026-05-07 01:34 41.26950 -72.88981 12 ft 7 kts 302°
2026-05-07 01:34 41.26952 -72.88986 12 ft 0 kts 300°